Year,Month,Day,Hour,Minute,Value (Times are PST for barometer in hPa)
2021,11,29,00,00,1020.62
2021,11,29,00,01,1020.57
2021,11,29,00,02,1020.56
2021,11,29,00,03,1020.56
2021,11,29,00,04,1020.58
2021,11,29,00,05,1020.59
2021,11,29,00,06,1020.59
2021,11,29,00,07,1020.59
2021,11,29,00,08,1020.59
2021,11,29,00,09,1020.59
2021,11,29,00,10,1020.54
2021,11,29,00,11,1020.55
2021,11,29,00,12,1020.56
2021,11,29,00,13,1020.58
2021,11,29,00,14,1020.59
2021,11,29,00,15,1020.59
2021,11,29,00,16,1020.61
2021,11,29,00,17,1020.62
2021,11,29,00,18,1020.65
2021,11,29,00,19,1020.68
2021,11,29,00,20,1020.72
2021,11,29,00,21,1020.68
2021,11,29,00,22,1020.68
2021,11,29,00,23,1020.67
2021,11,29,00,24,1020.66
2021,11,29,00,25,1020.66
2021,11,29,00,26,1020.66
2021,11,29,00,27,1020.66
2021,11,29,00,28,1020.63
2021,11,29,00,29,1020.60
2021,11,29,00,30,1020.54
2021,11,29,00,31,1020.52
2021,11,29,00,32,1020.55
2021,11,29,00,33,1020.56
2021,11,29,00,34,1020.41
2021,11,29,00,35,1020.23
2021,11,29,00,36,1020.16
2021,11,29,00,37,1020.39
2021,11,29,00,38,1020.44
2021,11,29,00,39,1020.40
2021,11,29,00,40,1020.27
2021,11,29,00,41,1020.40
2021,11,29,00,42,1020.54
2021,11,29,00,43,1020.56
2021,11,29,00,44,1020.39
2021,11,29,00,45,1020.27
2021,11,29,00,46,1020.20
2021,11,29,00,47,1020.28
2021,11,29,00,48,1020.10
2021,11,29,00,49,1020.21
2021,11,29,00,50,1020.33
2021,11,29,00,51,1020.49
2021,11,29,00,52,1020.29
2021,11,29,00,53,1020.21
2021,11,29,00,54,1020.45
2021,11,29,00,55,1020.39
2021,11,29,00,56,1020.30
2021,11,29,00,57,1020.26
2021,11,29,00,58,1020.42
2021,11,29,00,59,1020.54
2021,11,29,01,00,1020.56
2021,11,29,01,01,1020.58
2021,11,29,01,02,1020.59
2021,11,29,01,03,1020.57
2021,11,29,01,04,1020.58
2021,11,29,01,05,1020.57
2021,11,29,01,06,1020.58
2021,11,29,01,07,1020.59
2021,11,29,01,08,1020.57
2021,11,29,01,09,1020.53
2021,11,29,01,10,1020.52
2021,11,29,01,11,1020.55
2021,11,29,01,12,1020.60
2021,11,29,01,13,1020.65
2021,11,29,01,14,1020.63
2021,11,29,01,15,1020.67
2021,11,29,01,16,1020.67
2021,11,29,01,17,1020.66
2021,11,29,01,18,1020.68
2021,11,29,01,19,1020.67
2021,11,29,01,20,1020.63
2021,11,29,01,21,1020.58
2021,11,29,01,22,1020.56
2021,11,29,01,23,1020.53
2021,11,29,01,24,1020.55
2021,11,29,01,25,1020.56
2021,11,29,01,26,1020.56
2021,11,29,01,27,1020.53
2021,11,29,01,28,1020.52
2021,11,29,01,29,1020.50
2021,11,29,01,30,1020.51
2021,11,29,01,31,1020.52
2021,11,29,01,32,1020.52
2021,11,29,01,33,1020.57
2021,11,29,01,34,1020.59
2021,11,29,01,35,1020.59
2021,11,29,01,36,1020.61
2021,11,29,01,37,1020.58
2021,11,29,01,38,1020.58
2021,11,29,01,39,1020.59
2021,11,29,01,40,1020.45
2021,11,29,01,41,1020.57
2021,11,29,01,42,1020.63
2021,11,29,01,43,1020.65
2021,11,29,01,44,1020.71
2021,11,29,01,45,1020.73
2021,11,29,01,46,1020.75
2021,11,29,01,47,1020.71
2021,11,29,01,48,1020.69
2021,11,29,01,49,1020.69
2021,11,29,01,50,1020.69
2021,11,29,01,51,1020.69
2021,11,29,01,52,1020.58
2021,11,29,01,53,1020.68
2021,11,29,01,54,1020.74
2021,11,29,01,55,1020.75
2021,11,29,01,56,1020.69
2021,11,29,01,57,1020.61
2021,11,29,01,58,1020.57
2021,11,29,01,59,1020.58
2021,11,29,02,00,1020.57
2021,11,29,02,01,1020.56
2021,11,29,02,02,1020.45
2021,11,29,02,03,1020.50
2021,11,29,02,04,1020.56
2021,11,29,02,05,1020.56
2021,11,29,02,06,1020.58
2021,11,29,02,07,1020.61
2021,11,29,02,08,1020.67
2021,11,29,02,09,1020.67
2021,11,29,02,10,1020.68
2021,11,29,02,11,1020.64
2021,11,29,02,12,1020.60
2021,11,29,02,13,1020.59
2021,11,29,02,14,1020.52
2021,11,29,02,15,1020.62
2021,11,29,02,16,1020.69
2021,11,29,02,17,1020.67
2021,11,29,02,18,1020.63
2021,11,29,02,19,1020.55
2021,11,29,02,20,1020.52
2021,11,29,02,21,1020.52
2021,11,29,02,22,1020.55
2021,11,29,02,23,1020.63
2021,11,29,02,24,1020.68
2021,11,29,02,25,1020.69
2021,11,29,02,26,1020.67
2021,11,29,02,27,1020.63
2021,11,29,02,28,1020.55
2021,11,29,02,29,1020.52
2021,11,29,02,30,1020.47
2021,11,29,02,31,1020.45
2021,11,29,02,32,1020.41
2021,11,29,02,33,1020.34
2021,11,29,02,34,1020.32
2021,11,29,02,35,1020.34
2021,11,29,02,36,1020.40
2021,11,29,02,37,1020.44
2021,11,29,02,38,1020.50
2021,11,29,02,39,1020.52
2021,11,29,02,40,1020.50
2021,11,29,02,41,1020.44
2021,11,29,02,42,1020.40
2021,11,29,02,43,1020.41
2021,11,29,02,44,1020.40
2021,11,29,02,45,1020.41
2021,11,29,02,46,1020.40
2021,11,29,02,47,1020.36
2021,11,29,02,48,1020.31
2021,11,29,02,49,1020.31
2021,11,29,02,50,1020.27
2021,11,29,02,51,1020.28
2021,11,29,02,52,1020.29
2021,11,29,02,53,1020.26
2021,11,29,02,54,1020.25
2021,11,29,02,55,1020.20
2021,11,29,02,56,1020.16
2021,11,29,02,57,1020.15
2021,11,29,02,58,1020.15
2021,11,29,02,59,1020.22
2021,11,29,03,00,1020.25
2021,11,29,03,01,1020.25
2021,11,29,03,02,1020.25
2021,11,29,03,03,1020.25
2021,11,29,03,06,1020.32
2021,11,29,03,07,1020.01
2021,11,29,03,08,1019.98
2021,11,29,03,09,1020.33
2021,11,29,03,10,1020.25
2021,11,29,03,11,1020.25
2021,11,29,03,12,1020.37
2021,11,29,03,13,1020.39
2021,11,29,03,14,1020.39
2021,11,29,03,15,1020.04
2021,11,29,03,16,1020.27
2021,11,29,03,17,1020.32
2021,11,29,03,18,1020.12
2021,11,29,03,19,1020.22
2021,11,29,03,20,1020.25
2021,11,29,03,21,1020.15
2021,11,29,03,22,1020.26
2021,11,29,03,23,1020.09
2021,11,29,03,24,1020.02
2021,11,29,03,25,1020.01
2021,11,29,03,26,1018.96
2021,11,29,03,27,1018.76
2021,11,29,03,28,1019.80
2021,11,29,03,29,1019.98
2021,11,29,03,30,1019.98
2021,11,29,03,31,1019.98
2021,11,29,03,32,1019.98
2021,11,29,03,33,1018.88
2021,11,29,03,34,1018.69
2021,11,29,03,35,1012.95
2021,11,29,03,36,1011.51
2021,11,29,03,37,1011.51
2021,11,29,03,38,1011.51
2021,11,29,03,39,1011.51
2021,11,29,03,40,1011.51
2021,11,29,03,41,1017.29
2021,11,29,03,42,1018.73
2021,11,29,03,43,1018.73
2021,11,29,03,44,1018.73
2021,11,29,03,45,1019.96
2021,11,29,03,46,1020.18
2021,11,29,03,47,1020.18
2021,11,29,03,48,1020.18
2021,11,29,03,49,1020.18
2021,11,29,03,50,1020.18
2021,11,29,03,51,1020.18
2021,11,29,03,52,1020.18
2021,11,29,03,53,1020.24
2021,11,29,03,54,1020.25
2021,11,29,03,55,1020.28
2021,11,29,03,56,1020.29
2021,11,29,03,57,1020.26
2021,11,29,03,58,1020.28
2021,11,29,03,59,1020.23
2021,11,29,04,00,1020.22
2021,11,29,04,01,1020.22
2021,11,29,04,02,1020.22
2021,11,29,04,03,1020.22
2021,11,29,04,04,1020.25
2021,11,29,04,05,1020.28
2021,11,29,04,06,1020.29
2021,11,29,04,07,1020.29
2021,11,29,04,08,1020.29
2021,11,29,04,09,1020.29
2021,11,29,04,10,1020.29
2021,11,29,04,11,1020.26
2021,11,29,04,12,1020.19
2021,11,29,04,13,1020.18
2021,11,29,04,14,1020.18
2021,11,29,04,15,1020.18
2021,11,29,04,16,1020.18
2021,11,29,04,17,1018.97
2021,11,29,04,18,1018.79
2021,11,29,04,19,1018.80
2021,11,29,04,20,1018.80
2021,11,29,04,21,1018.80
2021,11,29,04,22,1018.80
2021,11,29,04,23,1020.02
2021,11,29,04,24,1020.29
2021,11,29,04,25,1020.34
2021,11,29,04,26,1020.35
2021,11,29,04,27,1020.41
2021,11,29,04,28,1020.39
2021,11,29,04,29,1020.36
2021,11,29,04,30,1020.41
2021,11,29,04,31,1020.36
2021,11,29,04,32,1020.32
2021,11,29,04,33,1020.32
2021,11,29,04,34,1020.32
2021,11,29,04,35,1020.30
2021,11,29,04,36,1020.31
2021,11,29,04,37,1020.26
2021,11,29,04,38,1020.25
2021,11,29,04,39,1020.25
2021,11,29,04,40,1019.09
2021,11,29,04,41,1018.80
2021,11,29,04,42,1019.94
2021,11,29,04,43,1020.25
2021,11,29,04,44,1020.25
2021,11,29,04,45,1020.25
2021,11,29,04,46,1020.25
2021,11,29,04,47,1020.31
2021,11,29,04,48,1020.32
2021,11,29,04,49,1020.30
2021,11,29,04,50,1020.29
2021,11,29,04,51,1020.29
2021,11,29,04,52,1020.29
2021,11,29,04,53,1020.29
2021,11,29,04,54,1020.32
2021,11,29,04,55,1020.34
2021,11,29,04,56,1020.38
2021,11,29,04,57,1020.41
2021,11,29,04,58,1020.40
2021,11,29,04,59,1020.41
2021,11,29,05,00,1020.40
2021,11,29,05,01,1020.39
2021,11,29,05,02,1020.41
2021,11,29,05,03,1020.42
2021,11,29,05,04,1020.36
2021,11,29,05,05,1020.35
2021,11,29,05,06,1020.33
2021,11,29,05,07,1020.38
2021,11,29,05,08,1020.39
2021,11,29,05,09,1020.33
2021,11,29,05,10,1020.34
2021,11,29,05,11,1020.35
2021,11,29,05,12,1020.38
2021,11,29,05,13,1020.36
2021,11,29,05,14,1020.35
2021,11,29,05,15,1020.35
2021,11,29,05,16,1020.35
2021,11,29,05,17,1020.35
2021,11,29,05,18,1020.35
2021,11,29,05,19,1020.33
2021,11,29,05,20,1020.30
2021,11,29,05,21,1020.31
2021,11,29,05,22,1020.32
2021,11,29,05,23,1020.32
2021,11,29,05,24,1020.32
2021,11,29,05,25,1020.32
2021,11,29,05,26,1020.30
2021,11,29,05,27,1020.29
2021,11,29,05,28,1020.34
2021,11,29,05,29,1020.33
2021,11,29,05,30,1020.34
2021,11,29,05,31,1020.38
2021,11,29,05,32,1020.39
2021,11,29,05,33,1020.42
2021,11,29,05,34,1020.40
2021,11,29,05,35,1020.39
2021,11,29,05,36,1020.39
2021,11,29,05,37,1020.41
2021,11,29,05,38,1020.36
2021,11,29,05,39,1020.38
2021,11,29,05,40,1020.36
2021,11,29,05,41,1020.33
2021,11,29,05,42,1020.30
2021,11,29,05,43,1020.29
2021,11,29,05,44,1020.29
2021,11,29,05,45,1020.31
2021,11,29,05,46,1020.34
2021,11,29,05,47,1020.38
2021,11,29,05,48,1020.47
2021,11,29,05,49,1020.49
2021,11,29,05,50,1020.49
2021,11,29,05,51,1020.55
2021,11,29,05,52,1020.53
2021,11,29,05,53,1020.55
2021,11,29,05,54,1020.53
2021,11,29,05,55,1020.58
2021,11,29,05,56,1020.61
2021,11,29,05,57,1020.60
2021,11,29,05,58,1020.62
2021,11,29,05,59,1020.62
2021,11,29,06,00,1020.65
2021,11,29,06,01,1020.63
2021,11,29,06,02,1020.62
2021,11,29,06,03,1020.62
2021,11,29,06,04,1020.65
2021,11,29,06,05,1020.66
2021,11,29,06,06,1020.66
2021,11,29,06,07,1020.66
2021,11,29,06,08,1020.66
2021,11,29,06,09,1020.66
2021,11,29,06,10,1020.68
2021,11,29,06,11,1020.67
2021,11,29,06,12,1020.68
2021,11,29,06,13,1020.69
2021,11,29,06,14,1020.75
2021,11,29,06,15,1020.76
2021,11,29,06,16,1020.76
2021,11,29,06,17,1020.78
2021,11,29,06,18,1020.82
2021,11,29,06,19,1020.83
2021,11,29,06,20,1020.83
2021,11,29,06,21,1020.80
2021,11,29,06,22,1020.82
2021,11,29,06,23,1020.83
2021,11,29,06,24,1020.85
2021,11,29,06,25,1020.86
2021,11,29,06,26,1020.84
2021,11,29,06,27,1020.83
2021,11,29,06,28,1020.88
2021,11,29,06,29,1020.89
2021,11,29,06,30,1020.92
2021,11,29,06,31,1020.90
2021,11,29,06,32,1020.92
2021,11,29,06,33,1020.95
2021,11,29,06,34,1020.96
2021,11,29,06,35,1020.96
2021,11,29,06,36,1020.96
2021,11,29,06,37,1020.96
2021,11,29,06,38,1020.96
2021,11,29,06,39,1020.96
2021,11,29,06,40,1020.96
2021,11,29,06,41,1020.94
2021,11,29,06,42,1020.95
2021,11,29,06,43,1020.99
2021,11,29,06,44,1021.02
2021,11,29,06,45,1021.05
2021,11,29,06,46,1021.06
2021,11,29,06,47,1020.82
2021,11,29,06,48,1020.92
2021,11,29,06,49,1020.86
2021,11,29,06,50,1020.97
2021,11,29,06,51,1020.74
2021,11,29,06,52,1021.18
2021,11,29,06,53,1021.30
2021,11,29,06,54,1020.38
2021,11,29,06,55,1020.29
2021,11,29,06,56,1020.16
2021,11,29,06,57,1019.89
2021,11,29,06,58,1020.11
2021,11,29,06,59,1020.18
2021,11,29,07,00,1020.51
2021,11,29,07,01,1020.45
2021,11,29,07,02,1020.88
2021,11,29,07,03,1021.13
2021,11,29,07,04,1021.31
2021,11,29,07,05,1021.34
2021,11,29,07,06,1021.34
2021,11,29,07,07,1021.36
2021,11,29,07,08,1021.37
2021,11,29,07,09,1021.39
2021,11,29,07,10,1021.40
2021,11,29,07,11,1021.43
2021,11,29,07,12,1021.46
2021,11,29,07,13,1021.45
2021,11,29,07,14,1021.44
2021,11,29,07,15,1021.44
2021,11,29,07,16,1021.44
2021,11,29,07,17,1021.44
2021,11,29,07,18,1021.44
2021,11,29,07,19,1021.44
2021,11,29,07,20,1021.44
2021,11,29,07,21,1021.46
2021,11,29,07,22,1021.47
2021,11,29,07,23,1021.37
2021,11,29,07,24,1021.34
2021,11,29,07,25,1021.34
2021,11,29,07,26,1021.52
2021,11,29,07,27,1021.60
2021,11,29,07,28,1021.61
2021,11,29,07,29,1021.55
2021,11,29,07,30,1021.54
2021,11,29,07,31,1021.54
2021,11,29,07,32,1021.56
2021,11,29,07,33,1021.60
2021,11,29,07,34,1021.61
2021,11,29,07,35,1021.61
2021,11,29,07,36,1021.63
2021,11,29,07,37,1021.64
2021,11,29,07,38,1019.34
2021,11,29,07,39,1018.76
2021,11,29,07,40,1018.76
2021,11,29,07,41,1018.76
2021,11,29,07,42,1018.76
2021,11,29,07,43,1018.76
2021,11,29,07,44,1018.76
2021,11,29,07,45,1018.76
2021,11,29,07,46,1018.84
2021,11,29,07,47,1018.86
2021,11,29,07,48,1018.86
2021,11,29,07,49,1018.86
2021,11,29,07,50,1018.86
2021,11,29,07,51,1018.86
2021,11,29,07,52,1018.86
2021,11,29,07,53,1018.86
2021,11,29,07,54,1017.74
2021,11,29,07,55,1017.37
2021,11,29,07,56,1019.65
2021,11,29,07,57,1020.22
2021,11,29,07,58,1021.33
2021,11,29,07,59,1021.42
2021,11,29,08,00,1020.99
2021,11,29,08,01,1021.32
2021,11,29,08,02,1021.60
2021,11,29,08,03,1021.64
2021,11,29,08,04,1021.62
2021,11,29,08,05,1021.66
2021,11,29,08,06,1021.39
2021,11,29,08,07,1021.61
2021,11,29,08,08,1021.71
2021,11,29,08,09,1021.71
2021,11,29,08,10,1021.71
2021,11,29,08,11,1021.71
2021,11,29,08,12,1021.71
2021,11,29,08,13,1021.71
2021,11,29,08,14,1011.12
2021,11,29,08,15,1008.52
2021,11,29,08,16,1008.51
2021,11,29,08,17,1008.50
2021,11,29,08,18,1008.23
2021,11,29,08,19,1008.35
2021,11,29,08,20,1008.40
2021,11,29,08,21,1008.40
2021,11,29,08,22,1010.97
2021,11,29,08,23,1011.65
2021,11,29,08,24,1008.51
2021,11,29,08,25,1007.72
2021,11,29,08,26,1008.28
2021,11,29,08,27,1008.18
2021,11,29,08,28,1008.09
2021,11,29,08,29,1008.09
2021,11,29,08,30,1008.09
2021,11,29,08,31,1009.04
2021,11,29,08,32,1009.47
2021,11,29,08,33,1009.84
2021,11,29,08,34,1009.75
2021,11,29,08,35,1009.87
2021,11,29,08,36,1009.98
2021,11,29,08,37,1009.99
2021,11,29,08,38,1011.09
2021,11,29,08,39,1011.38
2021,11,29,08,40,1011.38
2021,11,29,08,41,1011.38
2021,11,29,08,42,1011.38
2021,11,29,08,43,1011.83
2021,11,29,08,44,1011.95
2021,11,29,08,45,1011.95
2021,11,29,08,46,1011.95
2021,11,29,08,47,1011.95
2021,11,29,08,48,1011.95
2021,11,29,08,49,1011.98
2021,11,29,08,50,1011.99
2021,11,29,08,51,1011.99
2021,11,29,08,52,1011.99
2021,11,29,08,53,1011.99
2021,11,29,08,54,1011.99
2021,11,29,08,55,1016.28
2021,11,29,08,56,1017.71
2021,11,29,08,57,1017.71
2021,11,29,08,58,1017.71
2021,11,29,08,59,1017.71
2021,11,29,09,00,1017.71
2021,11,29,09,01,1013.04
2021,11,29,09,02,1011.55
2021,11,29,09,03,1011.58
2021,11,29,09,04,1011.58
2021,11,29,09,05,1011.58
2021,11,29,09,06,1011.58
2021,11,29,09,07,1011.58
2021,11,29,09,08,1011.58
2021,11,29,09,09,1010.66
2021,11,29,09,10,1010.43
2021,11,29,09,11,1010.43
2021,11,29,09,12,1009.37
2021,11,29,09,13,1009.13
2021,11,29,09,14,1009.63
2021,11,29,09,15,1010.20
2021,11,29,09,16,1010.26
2021,11,29,09,17,1010.47
2021,11,29,09,18,1010.53
2021,11,29,09,19,1010.53
2021,11,29,09,20,1010.53
2021,11,29,09,21,1009.74
2021,11,29,09,22,1009.48
2021,11,29,09,23,1010.32
2021,11,29,09,24,1010.60
2021,11,29,09,25,1010.60
2021,11,29,09,26,1010.60
2021,11,29,09,27,1009.50
2021,11,29,09,28,1009.21
2021,11,29,09,29,1010.25
2021,11,29,09,30,1010.14
2021,11,29,09,31,1009.99
2021,11,29,09,32,1009.99
2021,11,29,09,33,1009.59
2021,11,29,09,34,1009.45
2021,11,29,09,35,1009.45
2021,11,29,09,36,1008.72
2021,11,29,09,37,1008.77
2021,11,29,09,38,1008.87
2021,11,29,09,39,1007.98
2021,11,29,09,40,1007.69
2021,11,29,09,41,1008.41
2021,11,29,09,42,1008.96
2021,11,29,09,43,1009.08
2021,11,29,09,44,1009.08
2021,11,29,09,45,1009.08
2021,11,29,09,46,1008.72
2021,11,29,09,47,1009.03
2021,11,29,09,48,1009.33
2021,11,29,09,49,1009.38
2021,11,29,09,50,1009.30
2021,11,29,09,51,1009.48
2021,11,29,09,52,1009.55
2021,11,29,09,53,1009.55
2021,11,29,09,54,1009.55
2021,11,29,09,55,1009.55
2021,11,29,09,56,1009.55
2021,11,29,09,57,1009.37
2021,11,29,09,58,1009.54
2021,11,29,09,59,1009.62
2021,11,29,10,00,1009.62
2021,11,29,10,01,1010.13
2021,11,29,10,02,1010.30
2021,11,29,10,03,1009.33
2021,11,29,10,04,1009.16
2021,11,29,10,05,1009.24
2021,11,29,10,06,1009.25
2021,11,29,10,07,1009.25
2021,11,29,10,08,1009.39
2021,11,29,10,09,1009.42
2021,11,29,10,10,1009.44
2021,11,29,10,11,1009.47
2021,11,29,10,12,1009.48
2021,11,29,10,13,1009.28
2021,11,29,10,14,1008.84
2021,11,29,10,15,1008.71
2021,11,29,10,16,1008.70
2021,11,29,10,17,1009.24
2021,11,29,10,18,1009.93
2021,11,29,10,19,1010.09
2021,11,29,10,20,1009.17
2021,11,29,10,21,1009.20
2021,11,29,10,22,1009.31
2021,11,29,10,23,1009.92
2021,11,29,10,24,1010.13
2021,11,29,10,25,1010.13
2021,11,29,10,26,1010.13
2021,11,29,10,27,1010.13
2021,11,29,10,28,1010.13
2021,11,29,10,29,1010.13
2021,11,29,10,30,1010.13
2021,11,29,10,31,1010.13
2021,11,29,10,32,1010.13
2021,11,29,10,33,1010.13
2021,11,29,10,34,1010.13
2021,11,29,10,35,1010.13
2021,11,29,10,36,1010.13
2021,11,29,10,37,1010.13
2021,11,29,10,38,1010.13
2021,11,29,10,39,1006.36
2021,11,29,10,40,1005.35
2021,11,29,10,41,1005.35
2021,11,29,10,42,1005.35
2021,11,29,10,43,1005.35
2021,11,29,10,44,1005.35
2021,11,29,10,45,1005.35
2021,11,29,10,46,1006.40
2021,11,29,10,47,1006.95
2021,11,29,10,48,1007.14
2021,11,29,10,49,1007.18
2021,11,29,10,50,1007.18
2021,11,29,10,51,1007.18
2021,11,29,10,52,1007.18
2021,11,29,10,53,1007.18
2021,11,29,10,54,1007.18
2021,11,29,10,55,1007.18
2021,11,29,10,56,1007.18
2021,11,29,10,57,1007.18
2021,11,29,10,58,1007.18
2021,11,29,10,59,1007.18
2021,11,29,11,00,1007.18
2021,11,29,11,01,1007.18
2021,11,29,11,02,1007.18
2021,11,29,11,03,1007.18
2021,11,29,11,04,1007.18
2021,11,29,11,05,992.25
2021,11,29,11,06,987.27
2021,11,29,11,07,987.27
2021,11,29,11,08,987.27
2021,11,29,11,09,987.27
2021,11,29,11,10,989.33
2021,11,29,11,11,990.01
2021,11,29,11,12,990.01
2021,11,29,11,13,990.01
2021,11,29,11,14,990.01
2021,11,29,11,15,998.70
2021,11,29,11,16,1001.59
2021,11,29,11,17,1001.59
2021,11,29,11,18,1001.59
2021,11,29,11,19,1001.59
2021,11,29,11,20,1001.59
2021,11,29,11,21,1001.59
2021,11,29,11,22,1001.59
2021,11,29,11,23,1001.09
2021,11,29,11,24,1000.92
2021,11,29,11,25,1000.92
2021,11,29,11,26,1000.92
2021,11,29,11,27,1000.92
2021,11,29,11,28,1000.92
2021,11,29,11,29,1000.92
2021,11,29,11,30,1000.92
2021,11,29,11,31,1000.92
2021,11,29,11,32,1000.92
2021,11,29,11,33,1000.92
2021,11,29,11,34,1000.92
2021,11,29,11,35,1000.92
2021,11,29,11,36,1000.92
2021,11,29,11,37,1000.92
2021,11,29,11,38,1000.92
2021,11,29,11,39,1000.92
2021,11,29,11,40,1000.92
2021,11,29,11,41,1000.92
2021,11,29,11,42,1000.92
2021,11,29,11,43,1000.92
2021,11,29,11,44,1000.92
2021,11,29,11,45,1000.92
2021,11,29,11,46,1000.92
2021,11,29,11,47,1000.92
2021,11,29,11,48,1000.92
2021,11,29,11,49,1000.92
2021,11,29,11,50,1000.92
2021,11,29,11,51,1000.92
2021,11,29,14,19,900.07
2021,11,29,14,20,900.07
2021,11,29,14,21,900.07
2021,11,29,14,22,900.07
2021,11,29,14,23,900.07
2021,11,29,14,24,900.07
2021,11,29,14,25,900.07
2021,11,29,14,26,900.07
2021,11,29,14,27,900.07
2021,11,29,14,28,900.07
2021,11,29,14,29,900.07
2021,11,29,14,30,900.07
2021,11,29,14,31,900.07
2021,11,29,14,32,900.07
2021,11,29,14,33,900.07
2021,11,29,14,34,900.07
2021,11,29,14,35,900.07
2021,11,29,14,36,900.07
2021,11,29,14,37,900.07
2021,11,29,14,38,900.07
2021,11,29,14,39,900.07
2021,11,29,14,40,900.07
2021,11,29,14,41,900.07
2021,11,29,14,42,900.07
2021,11,29,14,43,900.07
2021,11,29,14,44,900.55
2021,11,29,14,45,900.75
2021,11,29,14,46,900.75
2021,11,29,14,47,900.75
2021,11,29,14,48,900.75
2021,11,29,14,49,900.75
2021,11,29,14,50,900.75
2021,11,29,14,51,900.75
2021,11,29,14,52,900.75
2021,11,29,14,53,900.75
2021,11,29,14,54,909.66
2021,11,29,14,55,912.84
2021,11,29,14,56,912.84
2021,11,29,14,57,912.84
2021,11,29,14,58,909.94
2021,11,29,14,59,908.32
2021,11,29,15,00,908.16
2021,11,29,15,01,908.16
2021,11,29,15,02,908.16
2021,11,29,15,03,908.16
2021,11,29,15,04,908.16
2021,11,29,15,05,908.16
2021,11,29,15,06,908.16
2021,11,29,15,07,908.16
2021,11,29,15,08,908.16
2021,11,29,15,09,908.16
2021,11,29,15,10,942.63
2021,11,29,15,11,957.40
2021,11,29,15,12,957.40
2021,11,29,15,13,957.40
2021,11,29,15,14,957.40
2021,11,29,15,15,957.40
2021,11,29,15,16,957.40
2021,11,29,15,17,957.40
2021,11,29,15,18,957.40
2021,11,29,15,19,957.40
2021,11,29,15,20,957.40
2021,11,29,15,21,957.40
2021,11,29,15,22,957.40
2021,11,29,15,23,957.40
2021,11,29,15,24,957.40
2021,11,29,15,25,957.40
2021,11,29,15,26,957.40
2021,11,29,15,27,957.40
2021,11,29,15,28,957.40
2021,11,29,15,29,957.40
2021,11,29,15,30,957.40
2021,11,29,15,31,957.40
2021,11,29,15,32,957.40
2021,11,29,15,33,957.40
2021,11,29,15,34,957.40
2021,11,29,15,35,957.40
2021,11,29,15,36,957.40
2021,11,29,15,37,957.40
2021,11,29,15,38,957.40
2021,11,29,15,39,957.40
2021,11,29,15,40,957.40
2021,11,29,15,41,957.40
2021,11,29,15,42,957.40
2021,11,29,15,43,957.40
2021,11,29,15,44,957.40
2021,11,29,15,45,957.40
2021,11,29,15,46,957.40
2021,11,29,15,47,957.40
2021,11,29,15,48,957.40
2021,11,29,15,49,957.40
2021,11,29,15,50,957.40
2021,11,29,15,51,957.40
2021,11,29,15,52,957.40
2021,11,29,15,53,957.40
2021,11,29,15,54,957.40
2021,11,29,15,55,957.40
2021,11,29,15,56,957.40
2021,11,29,15,57,957.40
2021,11,29,15,58,974.19
2021,11,29,15,59,981.38
2021,11,29,16,00,981.38
2021,11,29,16,01,981.38
2021,11,29,16,02,981.38
2021,11,29,16,03,981.38
2021,11,29,16,04,981.38
2021,11,29,16,05,981.38
2021,11,29,16,06,981.38
2021,11,29,16,07,988.28
2021,11,29,16,08,991.23
2021,11,29,16,09,991.23
2021,11,29,16,10,991.23
2021,11,29,16,11,991.23
2021,11,29,16,12,991.23
2021,11,29,16,13,991.23
2021,11,29,16,14,991.23
2021,11,29,16,15,991.23
2021,11,29,16,16,992.37
2021,11,29,16,17,992.86
2021,11,29,16,18,992.86
2021,11,29,16,19,992.86
2021,11,29,16,20,992.86
2021,11,29,16,21,992.86
2021,11,29,16,22,992.86
2021,11,29,16,23,992.86
2021,11,29,16,24,992.86
2021,11,29,16,25,992.86
2021,11,29,16,26,992.86
2021,11,29,16,27,992.86
2021,11,29,16,28,992.86
2021,11,29,16,29,992.86
2021,11,29,16,30,993.21
2021,11,29,16,31,993.36
2021,11,29,16,32,994.24
2021,11,29,16,33,994.62
2021,11,29,16,34,994.62
2021,11,29,16,35,994.62
2021,11,29,16,36,994.62
2021,11,29,16,37,994.62
2021,11,29,16,38,994.62
2021,11,29,16,39,994.62
2021,11,29,16,40,994.62
2021,11,29,16,41,994.62
2021,11,29,16,42,994.40
2021,11,29,16,43,994.31
2021,11,29,16,44,994.31
2021,11,29,16,45,994.31
2021,11,29,16,46,994.31
2021,11,29,16,47,994.31
2021,11,29,16,48,994.31
2021,11,29,16,49,994.31
2021,11,29,16,50,994.31
2021,11,29,16,51,994.31
2021,11,29,16,52,994.31
2021,11,29,16,53,994.31
2021,11,29,16,54,994.31
2021,11,29,16,55,982.63
2021,11,29,16,56,977.24
2021,11,29,16,57,977.24
2021,11,29,16,58,977.24
2021,11,29,16,59,977.24
2021,11,29,17,00,977.24
2021,11,29,17,01,977.24
2021,11,29,17,02,977.24
2021,11,29,17,03,977.24
2021,11,29,17,04,977.24
2021,11,29,17,05,977.24
2021,11,29,17,06,977.24
2021,11,29,17,07,977.24
2021,11,29,17,08,977.24
2021,11,29,17,09,977.24
2021,11,29,17,10,977.24
2021,11,29,17,11,977.24
2021,11,29,17,12,977.24
2021,11,29,17,13,977.24
2021,11,29,17,14,996.99
2021,11,29,17,15,1005.45
2021,11,29,17,16,1005.45
2021,11,29,17,17,1006.71
2021,11,29,17,18,1007.25
2021,11,29,17,19,1007.25
2021,11,29,17,20,1007.25
2021,11,29,17,21,1007.25
2021,11,29,17,22,1007.25
2021,11,29,17,23,1007.25
2021,11,29,17,24,1007.25
2021,11,29,17,25,1007.25
2021,11,29,17,26,1007.25
2021,11,29,17,27,1007.25
2021,11,29,17,28,1007.25
2021,11,29,17,29,1007.25
2021,11,29,17,30,1007.25
2021,11,29,17,31,1007.25
2021,11,29,17,32,1002.77
2021,11,29,17,33,1000.85
2021,11,29,17,34,1000.85
2021,11,29,17,35,1000.85
2021,11,29,17,36,1000.85
2021,11,29,17,37,1000.85
2021,11,29,17,38,1000.85
2021,11,29,17,39,1000.85
2021,11,29,17,40,1000.85
2021,11,29,17,41,1002.36
2021,11,29,17,42,1003.01
2021,11,29,17,43,1003.01
2021,11,29,17,44,1003.01
2021,11,29,17,45,1003.01
2021,11,29,17,46,1008.81
2021,11,29,17,47,1011.48
2021,11,29,17,48,1009.56
2021,11,29,17,49,1008.46
2021,11,29,17,50,1008.33
2021,11,29,17,51,1008.33
2021,11,29,17,52,1008.33
2021,11,29,17,53,1008.33
2021,11,29,17,54,1008.33
2021,11,29,17,55,1008.33
2021,11,29,17,56,1008.57
2021,11,29,17,57,1008.67
2021,11,29,17,58,1008.67
2021,11,29,17,59,1008.67
2021,11,29,18,00,1008.67
2021,11,29,18,01,1008.67
2021,11,29,18,02,1008.67
2021,11,29,18,03,1008.67
2021,11,29,18,04,1008.67
2021,11,29,18,05,1008.67
2021,11,29,18,06,1008.67
2021,11,29,18,07,1008.67
2021,11,29,18,08,1008.67
2021,11,29,18,09,1008.67
2021,11,29,18,10,1008.67
2021,11,29,18,11,1008.67
2021,11,29,18,12,1008.67
2021,11,29,18,13,1008.16
2021,11,29,18,14,1007.93
2021,11,29,18,15,1006.69
2021,11,29,18,16,1006.16
2021,11,29,18,17,1006.16
2021,11,29,18,18,1007.92
2021,11,29,18,19,1008.67
2021,11,29,18,20,1008.67
2021,11,29,18,21,1010.33
2021,11,29,18,22,1011.04
2021,11,29,18,23,1011.04
2021,11,29,18,24,1011.04
2021,11,29,18,25,1011.04
2021,11,29,18,26,1008.17
2021,11,29,18,27,1006.94
2021,11,29,18,28,1005.19
2021,11,29,18,29,1004.64
2021,11,29,18,30,1004.74
2021,11,29,18,31,1004.74
2021,11,29,18,32,1004.74